| time (UTC) | temp F | wind direction | speed knots | gust knots | rain 1hr in | rain 24hr in | rain mn in | humidity % | barometer mb |
| 20260503192525 | 65 | 226 | 17.4 | 28.7 | 0.00 | 0.00 | 0.00 | 44 | 1003.9 |
| 20260503190725 | 65 | 225 | 15.6 | 25.2 | 0.00 | 0.00 | 0.00 | 44 | 1004.1 |
| 20260503184925 | 64 | 215 | 17.4 | 26.1 | 0.00 | 0.00 | 0.00 | 46 | 1004.3 |
| 20260503184025 | 63 | 228 | 14.8 | 23.5 | 0.00 | 0.00 | 0.00 | 48 | 1004.5 |
| 20260503183125 | 63 | 218 | 15.6 | 25.2 | 0.00 | 0.00 | 0.00 | 48 | 1004.6 |
| 20260503182225 | 63 | 227 | 16.5 | 24.3 | 0.00 | 0.00 | 0.00 | 50 | 1004.8 |
| 20260503181325 | 62 | 226 | 14.8 | 22.6 | 0.00 | 0.00 | 0.00 | 50 | 1005.0 |
| 20260503180425 | 62 | 222 | 13.9 | 23.5 | 0.00 | 0.00 | 0.00 | 52 | 1005.1 |
| 20260503175525 | 62 | 226 | 12.2 | 20.0 | 0.00 | 0.00 | 0.00 | 53 | 1005.4 |
| 20260503174625 | 62 | 212 | 12.2 | 20.9 | 0.00 | 0.00 | 0.00 | 51 | 1005.6 |
| 20260503172825 | 60 | 203 | 17.4 | 25.2 | 0.00 | 0.00 | 0.00 | 53 | 1005.9 |
| 20260503171925 | 59 | 209 | 16.5 | 24.3 | 0.00 | 0.00 | 0.00 | 54 | 1006.1 |
| 20260503150425 | 57 | 241 | 12.2 | 20.0 | 0.00 | 0.00 | 0.00 | 55 | 1007.3 |
| 20260503140125 | 56 | 240 | 13.9 | 20.0 | 0.00 | 0.00 | 0.00 | 58 | 1007.8 |
| 20260503130725 | 52 | 232 | 9.6 | 15.6 | 0.00 | 0.00 | 0.00 | 60 | 1008.4 |
| 20260503110125 | 50 | 243 | 7.0 | 13.0 | 0.00 | 0.00 | 0.00 | 55 | 1008.3 |
| 20260503090425 | 48 | 206 | 4.3 | 7.0 | 0.00 | 0.00 | 0.00 | 59 | 1009.1 |
| 20260503081025 | 48 | 220 | 4.3 | 7.8 | 0.00 | 0.00 | 0.00 | 59 | 1009.5 |
| 20260503080125 | 48 | 221 | 4.3 | 7.8 | 0.00 | 0.00 | 0.00 | 58 | 1009.7 |
| 20260503072525 | 48 | 224 | 6.1 | 9.6 | 0.00 | 0.00 | 0.00 | 58 | 1009.8 |
| 20260503071625 | 48 | 223 | 6.1 | 9.6 | 0.00 | 0.00 | 0.00 | 59 | 1009.8 |
| 20260503070725 | 48 | 218 | 5.2 | 9.6 | 0.00 | 0.00 | 0.00 | 59 | 1009.9 |
| 20260503054625 | 47 | 218 | 5.2 | 8.7 | 0.00 | 0.00 | 0.00 | 58 | 1010.5 |
| 20260503053724 | 47 | 219 | 4.3 | 7.0 | 0.00 | 0.00 | 0.00 | 58 | 1010.6 |
| 20260503051925 | 46 | 219 | 4.3 | 7.8 | 0.00 | 0.00 | 0.00 | 60 | 1010.7 |
| 20260503051025 | 46 | 219 | 3.5 | 5.2 | 0.00 | 0.00 | 0.00 | 61 | 1010.8 |
| 20260503050125 | 46 | 216 | 3.5 | 6.1 | 0.00 | 0.00 | 0.00 | 63 | 1010.8 |
| 20260503045225 | 45 | 210 | 2.6 | 4.3 | 0.00 | 0.00 | 0.00 | 65 | 1010.8 |
| 20260503044325 | 44 | 198 | 1.7 | 2.6 | 0.00 | 0.00 | 0.00 | 68 | 1010.9 |
| 20260503043425 | 44 | 162 | 1.7 | 3.5 | 0.00 | 0.00 | 0.00 | 69 | 1010.9 |
| 20260503042525 | 43 | 149 | 1.7 | 2.6 | 0.00 | 0.00 | 0.00 | 71 | 1011.0 |
| 20260503041625 | 43 | 146 | 1.7 | 1.7 | 0.00 | 0.00 | 0.00 | 72 | 1011.1 |
| 20260503040725 | 43 | 159 | 0.9 | 2.6 | 0.00 | 0.00 | 0.00 | 73 | 1011.1 |
| 20260503035825 | 43 | 159 | 0.9 | 1.7 | 0.00 | 0.00 | 0.00 | 74 | 1011.2 |
| 20260503034925 | 43 | 0 | 0.0 | 0.9 | 0.00 | 0.00 | 0.00 | 73 | 1011.3 |
| 20260503034024 | 43 | 182 | 0.9 | 1.7 | 0.00 | 0.00 | 0.00 | 73 | 1011.4 |
| 20260503033124 | 43 | 167 | 0.9 | 2.6 | 0.00 | 0.00 | 0.00 | 72 | 1011.4 |
| 20260503032225 | 43 | 145 | 1.7 | 3.5 | 0.00 | 0.00 | 0.00 | 73 | 1011.5 |
| 20260503031325 | 43 | 143 | 2.6 | 3.5 | 0.00 | 0.00 | 0.00 | 72 | 1011.7 |
| 20260503030424 | 44 | 139 | 2.6 | 3.5 | 0.00 | 0.00 | 0.00 | 71 | 1011.8 |
| 20260503025524 | 44 | 140 | 2.6 | 3.5 | 0.00 | 0.00 | 0.00 | 70 | 1011.9 |
| 20260503024625 | 44 | 142 | 2.6 | 3.5 | 0.00 | 0.00 | 0.00 | 70 | 1011.8 |
| 20260503023724 | 45 | 143 | 2.6 | 3.5 | 0.00 | 0.00 | 0.00 | 68 | 1011.9 |
| 20260503021024 | 46 | 142 | 4.3 | 7.0 | 0.00 | 0.00 | 0.00 | 65 | 1011.9 |
| 20260503020124 | 46 | 137 | 4.3 | 6.1 | 0.00 | 0.00 | 0.00 | 64 | 1011.9 |
| 20260503015224 | 46 | 136 | 3.5 | 4.3 | 0.00 | 0.00 | 0.00 | 64 | 1011.7 |
| 20260503014324 | 46 | 128 | 2.6 | 3.5 | 0.00 | 0.00 | 0.00 | 63 | 1011.7 |
| 20260503013424 | 47 | 131 | 3.5 | 6.1 | 0.00 | 0.00 | 0.00 | 61 | 1011.6 |
| 20260503012524 | 47 | 126 | 4.3 | 6.1 | 0.00 | 0.00 | 0.00 | 60 | 1011.6 |
| 20260503011624 | 48 | 124 | 4.3 | 7.0 | 0.00 | 0.00 | 0.00 | 59 | 1011.7 |
| 20260503005824 | 49 | 115 | 4.3 | 7.0 | 0.00 | 0.00 | 0.00 | 56 | 1011.7 |
| 20260503004924 | 49 | 118 | 4.3 | 7.8 | 0.00 | 0.00 | 0.00 | 56 | 1011.7 |
| 20260503004024 | 50 | 119 | 5.2 | 8.7 | 0.00 | 0.00 | 0.00 | 55 | 1011.7 |
| 20260503003125 | 50 | 119 | 5.2 | 7.8 | 0.00 | 0.00 | 0.00 | 55 | 1011.8 |
| 20260503002224 | 50 | 109 | 4.3 | 7.8 | 0.00 | 0.00 | 0.00 | 57 | 1011.7 |
| 20260503001324 | 51 | 102 | 4.3 | 7.8 | 0.00 | 0.00 | 0.00 | 56 | 1011.7 |
| 20260503000424 | 51 | 110 | 4.3 | 7.0 | 0.00 | 0.00 | 0.00 | 56 | 1011.7 |
| 20260502235524 | 51 | 103 | 4.3 | 8.7 | 0.00 | 0.00 | 0.00 | 57 | 1011.8 |
| 20260502234624 | 52 | 98 | 3.5 | 7.8 | 0.00 | 0.00 | 0.00 | 55 | 1011.9 |
| 20260502232824 | 51 | 113 | 4.3 | 8.7 | 0.00 | 0.00 | 0.00 | 54 | 1012.1 |
| 20260502230124 | 51 | 100 | 6.1 | 11.3 | 0.00 | 0.00 | 0.00 | 53 | 1012.4 |
| 20260502225224 | 52 | 100 | 4.3 | 8.7 | 0.00 | 0.00 | 0.00 | 55 | 1012.4 |
| 20260502224324 | 51 | 101 | 6.1 | 10.4 | 0.00 | 0.00 | 0.00 | 54 | 1012.6 |
| 20260502223424 | 51 | 106 | 5.2 | 10.4 | 0.00 | 0.00 | 0.00 | 52 | 1012.6 |
| 20260502222524 | 51 | 105 | 5.2 | 10.4 | 0.00 | 0.00 | 0.00 | 51 | 1012.7 |
| 20260502221624 | 51 | 109 | 6.1 | 10.4 | 0.00 | 0.00 | 0.00 | 53 | 1012.7 |
| 20260502220724 | 50 | 97 | 6.1 | 9.6 | 0.00 | 0.00 | 0.00 | 53 | 1012.9 |
| 20260502215824 | 50 | 110 | 6.1 | 9.6 | 0.00 | 0.00 | 0.00 | 52 | 1013.0 |
| 20260502214924 | 50 | 112 | 6.1 | 10.4 | 0.00 | 0.00 | 0.00 | 52 | 1012.9 |
| 20260502214024 | 51 | 102 | 6.1 | 11.3 | 0.00 | 0.00 | 0.00 | 51 | 1012.9 |
| 20260502213124 | 52 | 107 | 6.1 | 11.3 | 0.00 | 0.00 | 0.00 | 50 | 1013.0 |
| 20260502212224 | 53 | 123 | 5.2 | 14.8 | 0.00 | 0.00 | 0.00 | 49 | 1013.0 |
| 20260502211324 | 52 | 114 | 5.2 | 12.2 | 0.00 | 0.00 | 0.00 | 50 | 1013.1 |
| 20260502210424 | 52 | 109 | 5.2 | 10.4 | 0.00 | 0.00 | 0.00 | 49 | 1013.1 |
| 20260502205524 | 52 | 105 | 5.2 | 8.7 | 0.00 | 0.00 | 0.00 | 49 | 1013.4 |
| 20260502204624 | 52 | 101 | 5.2 | 9.6 | 0.00 | 0.00 | 0.00 | 49 | 1013.5 |
| 20260502203724 | 52 | 109 | 6.1 | 11.3 | 0.00 | 0.00 | 0.00 | 49 | 1013.5 |
| 20260502201924 | 52 | 127 | 5.2 | 10.4 | 0.00 | 0.00 | 0.00 | 47 | 1013.9 |
| 20260502201024 | 52 | 108 | 4.3 | 8.7 | 0.00 | 0.00 | 0.00 | 45 | 1014.1 |
| 20260502200124 | 55 | 269 | 3.5 | 7.0 | 0.00 | 0.00 | 0.00 | 39 | 1014.1 |
| 20260502195224 | 54 | 259 | 3.5 | 7.0 | 0.00 | 0.00 | 0.00 | 40 | 1014.2 |
| 20260502194324 | 54 | 241 | 1.7 | 4.3 | 0.00 | 0.00 | 0.00 | 42 | 1014.3 |
| 20260502193424 | 54 | 279 | 4.3 | 9.6 | 0.00 | 0.00 | 0.00 | 38 | 1014.3 |